User: anonymous   Login
Location: Dumpton Point
(51.3500°N, 1.4433°E)
Time: 23:03:30
(UTC+00:00)
Language:

Tiros 1 despin weight - Orbit

View from above orbital plane
View from above orbital plane
View from above satellite
View from above satellite

Ground track
Ground track

The orbit data is extracted from the following two-line orbital elements,

1   115U 60002D   21108.46645007  .00000201  00000-0  50761-4 0  9995
2   115  48.1662 247.3865 0034367 154.2534 206.0098 14.83745231258264
Epoch (UTC): 18 April 2021 11:11:41
Eccentricity: 0.0034367
inclination: 48.1662°
perigee height: 593 km
apogee height: 641 km
right ascension of ascending node: 247.3865°
argument of perigee: 154.2534°
revolutions per day: 14.83745231
mean anomaly at epoch: 206.0098°
orbit number at epoch: 25826

The dashed part of the orbit path shows where the satellite is in the earth's shadow,  

DLR